LOT5001 BIKF-EPWA

Flight info

Callsign LOT5001
Flight time N/A
Altitude 37000
Route OSKUM3C OSKUM DCT 63N010W DCT GUNPA/N0446F370 DCT NERDO DCT AMROR N983 ELPOL N195 SORIX
Aircraft B38M/M-SDE1FGHILORVWXY/HB1

Departure

Time 2026-04-30 12:55
Airport Keflavik International Airport (BIKF)

Arrival

Time N/A
Airport Warsaw Chopin Airport (EPWA)
Time Latitude Longitude Altitude Speed Heading
2026-04-30 12:02 63.99273 -22.62572 141 ft 0 kts 51°
2026-04-30 12:44 63.99260 -22.62609 144 ft 3 kts 59°
2026-04-30 12:44 63.99251 -22.62655 144 ft 3 kts 78°
2026-04-30 12:45 63.99251 -22.62702 144 ft 3 kts 116°
2026-04-30 12:45 63.99258 -22.62722 144 ft 1 kts 138°
2026-04-30 12:49 63.99250 -22.62708 144 ft 5 kts 142°
2026-04-30 12:49 63.99194 -22.62663 144 ft 12 kts 156°
2026-04-30 12:50 63.99173 -22.62470 144 ft 17 kts 92°
2026-04-30 12:50 63.99173 -22.62143 144 ft 25 kts 90°
2026-04-30 12:50 63.99173 -22.61786 147 ft 13 kts 90°
2026-04-30 12:50 63.99174 -22.61538 152 ft 19 kts 90°
2026-04-30 12:51 63.99174 -22.61296 158 ft 14 kts 90°
2026-04-30 12:51 63.99172 -22.61025 164 ft 20 kts 87°
2026-04-30 12:51 63.99173 -22.60767 170 ft 0 kts 90°
2026-04-30 12:53 63.99173 -22.60764 170 ft 2 kts 89°
2026-04-30 12:53 63.99173 -22.60675 174 ft 9 kts 88°
2026-04-30 12:53 63.99131 -22.60543 179 ft 14 kts 169°
2026-04-30 12:53 63.99085 -22.60539 179 ft 0 kts 178°
2026-04-30 12:55 63.98977 -22.60540 178 ft 46 kts 180°
2026-04-30 12:55 63.98425 -22.60543 166 ft 112 kts 179°
2026-04-30 12:55 63.97445 -22.60517 248 ft 158 kts 184°
2026-04-30 12:55 63.96320 -22.60335 827 ft 171 kts 182°
2026-04-30 12:56 63.95018 -22.60100 1413 ft 194 kts 181°
2026-04-30 12:56 63.93692 -22.59306 2036 ft 221 kts 154°
2026-04-30 12:56 63.92670 -22.56405 2526 ft 247 kts 112°
2026-04-30 12:56 63.92305 -22.52587 3399 ft 251 kts 107°
2026-04-30 12:57 63.91871 -22.48700 4143 ft 254 kts 110°
2026-04-30 12:57 63.91359 -22.44846 4947 ft 256 kts 112°
2026-04-30 12:57 63.90784 -22.41009 5736 ft 259 kts 114°
2026-04-30 12:57 63.90144 -22.37044 6093 ft 274 kts 115°
2026-04-30 12:58 63.89457 -22.32970 6065 ft 279 kts 116°
2026-04-30 12:58 63.88746 -22.28838 6007 ft 281 kts 115°
2026-04-30 12:58 63.88027 -22.24718 6057 ft 281 kts 116°
2026-04-30 12:58 63.87302 -22.20612 6054 ft 280 kts 116°
2026-04-30 12:59 63.86569 -22.16491 6052 ft 281 kts 116°
2026-04-30 12:59 63.85839 -22.12397 6054 ft 282 kts 116°
2026-04-30 12:59 63.85102 -22.08279 6048 ft 282 kts 116°
2026-04-30 12:59 63.84363 -22.04160 6061 ft 283 kts 116°
2026-04-30 13:00 63.83694 -21.99961 6047 ft 285 kts 105°
2026-04-30 13:00 63.83427 -21.95498 6065 ft 286 kts 99°
2026-04-30 13:00 63.83192 -21.91029 6054 ft 287 kts 100°
2026-04-30 13:00 63.82948 -21.86531 6063 ft 287 kts 101°
2026-04-30 13:01 63.82700 -21.82041 6071 ft 287 kts 101°
2026-04-30 13:01 63.82448 -21.77542 6137 ft 290 kts 100°
2026-04-30 13:01 63.82192 -21.73012 6782 ft 291 kts 100°
2026-04-30 13:01 63.81932 -21.68439 7011 ft 294 kts 100°
2026-04-30 13:02 63.81671 -21.63839 7058 ft 294 kts 101°
2026-04-30 13:02 63.81408 -21.59262 7062 ft 293 kts 100°
2026-04-30 13:02 63.81148 -21.54762 7061 ft 293 kts 100°
2026-04-30 13:02 63.80878 -21.50126 7060 ft 293 kts 101°
2026-04-30 13:03 63.80614 -21.45596 7207 ft 296 kts 101°
2026-04-30 13:03 63.80344 -21.41001 8082 ft 294 kts 101°
2026-04-30 13:03 63.80068 -21.36346 8700 ft 304 kts 101°
2026-04-30 13:03 63.79785 -21.31572 9420 ft 308 kts 101°
2026-04-30 13:04 63.79495 -21.26728 9923 ft 315 kts 101°
2026-04-30 13:04 63.79199 -21.21804 9955 ft 316 kts 101°
2026-04-30 13:04 63.78902 -21.16884 9925 ft 315 kts 101°
2026-04-30 13:04 63.78604 -21.11985 9929 ft 315 kts 101°
2026-04-30 13:05 63.78302 -21.07064 9928 ft 315 kts 101°
2026-04-30 13:05 63.78006 -21.02234 9931 ft 316 kts 101°
2026-04-30 13:05 63.77495 -20.97303 10165 ft 330 kts 110°
2026-04-30 13:06 63.76220 -20.86774 10821 ft 360 kts 108°
2026-04-30 13:06 63.75576 -20.81288 11474 ft 363 kts 108°
2026-04-30 13:06 63.74927 -20.75734 12110 ft 368 kts 108°
2026-04-30 13:06 63.74270 -20.70110 12788 ft 372 kts 108°
2026-04-30 13:07 63.73606 -20.64438 13455 ft 376 kts 109°
2026-04-30 13:07 63.72931 -20.58689 14065 ft 381 kts 109°
2026-04-30 13:07 63.72244 -20.52865 14643 ft 385 kts 109°
2026-04-30 13:07 63.71554 -20.47018 15220 ft 389 kts 109°
2026-04-30 13:08 63.71106 -20.40953 15787 ft 398 kts 96°
2026-04-30 13:08 63.70922 -20.34681 16325 ft 403 kts 96°
2026-04-30 13:08 63.70724 -20.28328 16895 ft 407 kts 96°
2026-04-30 13:08 63.70521 -20.21932 17428 ft 412 kts 96°
2026-04-30 13:09 63.70311 -20.15463 17960 ft 416 kts 96°
2026-04-30 13:09 63.70169 -20.11121 18300 ft 419 kts 96°
2026-04-30 13:09 63.69950 -20.04521 18750 ft 423 kts 96°
2026-04-30 13:09 63.69727 -19.97890 19209 ft 426 kts 96°
2026-04-30 13:10 63.69424 -19.89041 19797 ft 431 kts 96°
2026-04-30 13:10 63.69190 -19.82277 20239 ft 434 kts 96°
2026-04-30 13:10 63.69028 -19.77661 20537 ft 437 kts 96°
2026-04-30 13:10 63.68785 -19.70818 20970 ft 440 kts 96°
2026-04-30 13:11 63.68537 -19.63947 21494 ft 440 kts 96°
2026-04-30 13:11 63.68286 -19.57070 22016 ft 441 kts 96°
2026-04-30 13:11 63.68031 -19.50167 22412 ft 445 kts 96°
2026-04-30 13:11 63.67773 -19.43269 22839 ft 448 kts 97°
2026-04-30 13:12 63.67507 -19.36255 23235 ft 451 kts 96°
2026-04-30 13:12 63.67236 -19.29199 23591 ft 456 kts 96°
2026-04-30 13:12 63.66958 -19.22074 23953 ft 459 kts 96°
2026-04-30 13:13 63.66387 -19.07700 24729 ft 463 kts 96°
2026-04-30 13:13 63.66094 -19.00465 25109 ft 465 kts 96°
2026-04-30 13:13 63.65493 -18.85882 25870 ft 470 kts 97°
2026-04-30 13:14 63.65187 -18.78588 26336 ft 470 kts 98°
2026-04-30 13:14 63.64875 -18.71273 26790 ft 471 kts 98°
2026-04-30 13:14 63.64235 -18.56488 27488 ft 477 kts 98°
2026-04-30 13:15 63.63906 -18.49030 27836 ft 479 kts 98°
2026-04-30 13:15 63.63233 -18.34025 28531 ft 484 kts 98°
2026-04-30 13:15 63.62887 -18.26453 28882 ft 487 kts 98°
2026-04-30 13:16 63.62538 -18.18892 29206 ft 489 kts 98°
2026-04-30 13:16 63.62185 -18.11358 29531 ft 492 kts 98°
2026-04-30 13:16 63.61823 -18.03694 29845 ft 494 kts 98°
2026-04-30 13:17 63.61084 -17.88319 30577 ft 494 kts 100°
2026-04-30 13:17 63.60706 -17.80626 30815 ft 496 kts 100°
2026-04-30 13:17 63.59938 -17.65186 31338 ft 500 kts 101°
2026-04-30 13:18 63.59546 -17.57435 31593 ft 501 kts 101°
2026-04-30 13:18 63.58744 -17.41812 32096 ft 505 kts 101°
2026-04-30 13:18 63.58332 -17.33957 32339 ft 507 kts 101°
2026-04-30 13:19 63.57917 -17.26090 32580 ft 508 kts 101°
2026-04-30 13:19 63.57496 -17.18205 32901 ft 508 kts 101°
2026-04-30 13:19 63.57073 -17.10373 33254 ft 506 kts 102°
2026-04-30 13:19 63.56648 -17.02566 33680 ft 503 kts 102°
2026-04-30 13:20 63.56224 -16.94861 33985 ft 503 kts 102°
2026-04-30 13:20 63.55791 -16.87071 34258 ft 503 kts 102°
2026-04-30 13:20 63.55354 -16.79293 34507 ft 502 kts 102°
2026-04-30 13:20 63.54912 -16.71509 34753 ft 502 kts 102°
2026-04-30 13:21 63.54468 -16.63761 35004 ft 502 kts 102°
2026-04-30 13:21 63.54018 -16.55994 35255 ft 501 kts 102°
2026-04-30 13:21 63.53569 -16.48292 35507 ft 501 kts 102°
2026-04-30 13:22 63.52651 -16.32794 35996 ft 500 kts 102°
2026-04-30 13:22 63.52191 -16.25153 36238 ft 500 kts 102°
2026-04-30 13:22 63.51252 -16.09727 36686 ft 499 kts 102°
2026-04-30 13:23 63.50777 -16.02036 36899 ft 499 kts 102°
2026-04-30 13:23 63.49814 -15.86655 36967 ft 499 kts 103°
2026-04-30 13:24 63.47841 -15.55951 36979 ft 498 kts 103°
2026-04-30 13:25 63.45812 -15.25431 36977 ft 496 kts 104°
2026-04-30 13:26 63.43188 -14.87395 36985 ft 496 kts 104°
2026-04-30 13:28 63.40470 -14.49522 36983 ft 494 kts 105°
2026-04-30 13:28 63.38794 -14.26861 36993 ft 494 kts 105°
2026-04-30 13:29 63.36500 -13.96660 36940 ft 494 kts 105°
2026-04-30 13:31 63.33564 -13.59236 37004 ft 491 kts 106°
2026-04-30 13:32 63.30531 -13.21905 37002 ft 491 kts 107°
2026-04-30 13:33 63.28031 -12.92056 37001 ft 490 kts 108°
2026-04-30 13:34 63.26123 -12.69776 37013 ft 489 kts 108°
2026-04-30 13:35 63.23527 -12.40165 37011 ft 489 kts 108°
2026-04-30 13:36 63.20884 -12.10754 37006 ft 487 kts 109°
2026-04-30 13:36 63.18858 -11.88697 37019 ft 486 kts 109°
2026-04-30 13:37 63.16801 -11.66700 37026 ft 486 kts 109°
2026-04-30 13:38 63.14713 -11.44764 37034 ft 486 kts 109°
2026-04-30 13:39 63.11877 -11.15579 37026 ft 485 kts 110°
2026-04-30 13:40 63.09730 -10.93886 37029 ft 485 kts 110°
2026-04-30 13:40 63.08274 -10.79342 37026 ft 485 kts 110°
2026-04-30 13:41 63.06803 -10.64795 37032 ft 485 kts 110°
2026-04-30 13:41 63.05332 -10.50391 37027 ft 484 kts 110°
2026-04-30 13:42 63.03840 -10.35925 37020 ft 484 kts 110°
2026-04-30 13:42 63.01585 -10.14348 37031 ft 483 kts 110°
2026-04-30 13:43 63.00014 -9.99964 37033 ft 478 kts 116°
2026-04-30 13:43 62.97789 -9.86290 37033 ft 477 kts 116°
2026-04-30 13:44 62.95637 -9.72496 37022 ft 477 kts 116°
2026-04-30 13:44 62.93489 -9.58709 37042 ft 477 kts 116°
2026-04-30 13:45 62.90263 -9.38188 37035 ft 477 kts 116°
2026-04-30 13:46 62.88072 -9.24382 37036 ft 477 kts 116°
2026-04-30 13:46 62.85893 -9.10754 37049 ft 477 kts 116°
2026-04-30 13:47 62.83688 -8.97068 37015 ft 476 kts 117°
2026-04-30 13:47 62.81479 -8.83458 37067 ft 475 kts 117°
2026-04-30 13:48 62.79257 -8.69869 37063 ft 474 kts 117°
2026-04-30 13:48 62.77020 -8.56289 37073 ft 474 kts 117°
2026-04-30 13:49 62.74777 -8.42771 37075 ft 474 kts 117°
2026-04-30 13:49 62.72531 -8.29338 37084 ft 474 kts 117°
2026-04-30 13:50 62.70258 -8.15835 37086 ft 474 kts 117°
2026-04-30 13:50 62.66870 -7.95898 37099 ft 474 kts 118°
2026-04-30 13:51 62.64573 -7.82495 37111 ft 474 kts 118°
2026-04-30 13:51 62.62273 -7.69172 37110 ft 474 kts 118°
2026-04-30 13:52 62.59946 -7.55784 37104 ft 472 kts 118°
2026-04-30 13:52 62.57610 -7.42445 37106 ft 472 kts 118°
2026-04-30 13:53 62.55273 -7.29187 37124 ft 471 kts 118°
2026-04-30 13:53 62.53321 -7.18183 37130 ft 471 kts 118°
2026-04-30 13:54 62.50561 -7.02735 37129 ft 471 kts 118°
2026-04-30 13:54 62.48182 -6.89519 37130 ft 471 kts 119°
2026-04-30 13:55 62.45811 -6.76435 37143 ft 471 kts 119°
2026-04-30 13:55 62.43411 -6.63278 37132 ft 470 kts 119°
2026-04-30 13:56 62.40998 -6.50138 37145 ft 472 kts 119°
2026-04-30 13:56 62.38571 -6.37013 37127 ft 472 kts 119°
2026-04-30 13:57 62.36544 -6.26117 37118 ft 471 kts 119°
2026-04-30 13:57 62.34096 -6.13040 37136 ft 471 kts 119°
2026-04-30 13:58 62.30401 -5.93466 37137 ft 470 kts 119°
2026-04-30 13:59 62.27944 -5.80549 37117 ft 470 kts 119°
2026-04-30 13:59 62.25449 -5.67522 37148 ft 473 kts 119°
2026-04-30 14:00 62.22938 -5.54500 37143 ft 473 kts 120°
2026-04-30 14:00 62.19151 -5.35018 37158 ft 473 kts 120°
2026-04-30 14:01 62.16610 -5.22050 37163 ft 472 kts 120°
2026-04-30 14:01 62.14055 -5.09098 37164 ft 472 kts 120°
2026-04-30 14:02 62.11493 -4.96185 37162 ft 471 kts 120°
2026-04-30 14:02 62.08933 -4.83371 37166 ft 470 kts 120°
2026-04-30 14:03 62.06358 -4.70560 37178 ft 470 kts 120°
2026-04-30 14:03 62.03783 -4.57828 37181 ft 470 kts 120°
2026-04-30 14:04 62.01186 -4.45069 37181 ft 470 kts 120°
2026-04-30 14:04 61.98571 -4.32303 37183 ft 470 kts 120°
2026-04-30 14:05 61.95963 -4.19646 37193 ft 470 kts 120°
2026-04-30 14:05 61.93320 -4.06903 37188 ft 470 kts 120°
2026-04-30 14:06 61.89351 -3.87906 37195 ft 470 kts 120°
2026-04-30 14:07 61.85349 -3.68932 37196 ft 469 kts 121°
2026-04-30 14:08 61.81357 -3.50169 37194 ft 467 kts 121°
2026-04-30 14:08 61.77340 -3.31463 37202 ft 466 kts 121°
2026-04-30 14:09 61.74642 -3.18993 37201 ft 466 kts 121°
2026-04-30 14:10 61.70582 -3.00361 37215 ft 466 kts 121°
2026-04-30 14:10 61.67861 -2.87969 37214 ft 466 kts 121°
2026-04-30 14:11 61.65133 -2.75614 37223 ft 466 kts 121°
2026-04-30 14:11 61.62389 -2.63265 37217 ft 466 kts 121°
2026-04-30 14:12 61.59638 -2.50949 37220 ft 466 kts 121°
2026-04-30 14:12 61.56881 -2.38682 37214 ft 466 kts 122°
2026-04-30 14:13 61.54104 -2.26398 37220 ft 465 kts 122°
2026-04-30 14:13 61.51320 -2.14151 37223 ft 465 kts 122°
2026-04-30 14:14 61.48533 -2.01961 37236 ft 465 kts 122°
2026-04-30 14:14 61.45729 -1.89765 37240 ft 465 kts 122°
2026-04-30 14:15 61.42931 -1.77665 37240 ft 465 kts 122°
2026-04-30 14:15 61.40111 -1.65536 37255 ft 465 kts 122°
2026-04-30 14:16 61.37282 -1.53440 37253 ft 464 kts 122°
2026-04-30 14:16 61.34434 -1.41330 37252 ft 464 kts 122°
2026-04-30 14:17 61.31580 -1.29259 37250 ft 465 kts 122°
2026-04-30 14:17 61.28712 -1.17202 37258 ft 465 kts 122°
2026-04-30 14:18 61.25845 -1.05212 37271 ft 464 kts 123°
2026-04-30 14:18 61.21513 -0.87210 37273 ft 464 kts 123°
2026-04-30 14:19 61.17167 -0.69272 37279 ft 464 kts 123°
2026-04-30 14:20 61.14282 -0.57441 37281 ft 464 kts 123°
2026-04-30 14:20 61.09892 -0.39555 37295 ft 464 kts 123°
2026-04-30 14:21 61.06962 -0.27691 37298 ft 464 kts 123°
2026-04-30 14:22 61.02545 -0.09922 37283 ft 463 kts 123°
2026-04-30 14:22 60.97912 0.07422 37328 ft 461 kts 126°
2026-04-30 14:23 60.91546 0.30308 37313 ft 461 kts 126°
2026-04-30 14:24 60.86755 0.47469 37318 ft 461 kts 126°
2026-04-30 14:25 60.80340 0.70242 37299 ft 461 kts 126°
2026-04-30 14:26 60.75501 0.87271 37337 ft 462 kts 126°
2026-04-30 14:27 60.70667 1.04160 37344 ft 460 kts 126°
2026-04-30 14:27 60.67426 1.15411 37352 ft 460 kts 126°
2026-04-30 14:28 60.62543 1.32260 37358 ft 460 kts 126°
2026-04-30 14:28 60.59276 1.43466 37370 ft 461 kts 126°
2026-04-30 14:29 60.53251 1.63983 37374 ft 462 kts 126°
2026-04-30 14:31 60.44436 1.93682 37369 ft 461 kts 126°
2026-04-30 14:31 60.39468 2.10248 37389 ft 460 kts 126°
2026-04-30 14:32 60.34467 2.26809 37398 ft 460 kts 126°
2026-04-30 14:33 60.31120 2.37825 37396 ft 460 kts 126°
2026-04-30 14:33 60.26089 2.54285 37410 ft 460 kts 126°
2026-04-30 14:34 60.22719 2.65245 37408 ft 460 kts 126°
2026-04-30 14:34 60.19337 2.76194 37419 ft 462 kts 126°
2026-04-30 14:35 60.14241 2.92592 37418 ft 462 kts 126°
2026-04-30 14:36 60.10837 3.03485 37424 ft 460 kts 126°
2026-04-30 14:36 60.07450 3.14268 37423 ft 460 kts 126°
2026-04-30 14:37 60.04035 3.25095 37429 ft 460 kts 126°
2026-04-30 14:37 60.00610 3.35902 37430 ft 460 kts 126°
2026-04-30 14:38 59.97169 3.46705 37438 ft 461 kts 126°
2026-04-30 14:38 59.93723 3.57477 37439 ft 461 kts 126°
2026-04-30 14:39 59.90263 3.68242 37439 ft 461 kts 126°
2026-04-30 14:39 59.86823 3.78896 37443 ft 461 kts 126°
2026-04-30 14:40 59.81613 3.94939 37439 ft 460 kts 126°
2026-04-30 14:40 59.78132 4.05595 37458 ft 459 kts 126°
2026-04-30 14:41 59.74647 4.16218 37461 ft 459 kts 126°
2026-04-30 14:41 59.71162 4.26791 37463 ft 459 kts 126°
2026-04-30 14:42 59.67654 4.37388 37452 ft 459 kts 126°
2026-04-30 14:42 59.64142 4.47945 37460 ft 459 kts 126°
2026-04-30 14:43 59.60630 4.58459 37450 ft 459 kts 126°
2026-04-30 14:43 59.57118 4.68926 37471 ft 460 kts 126°
2026-04-30 14:44 59.53573 4.79440 37475 ft 460 kts 126°
2026-04-30 14:44 59.50028 4.89912 37470 ft 459 kts 126°
2026-04-30 14:45 59.46483 5.00333 37474 ft 459 kts 126°
2026-04-30 14:45 59.43528 5.08986 37481 ft 459 kts 126°
2026-04-30 14:46 59.39961 5.19392 37472 ft 459 kts 125°
2026-04-30 14:46 59.36386 5.29770 37479 ft 459 kts 125°
2026-04-30 14:47 59.32815 5.40093 37481 ft 459 kts 126°
2026-04-30 14:47 59.29219 5.50444 37484 ft 459 kts 126°
2026-04-30 14:48 59.25646 5.60683 37483 ft 459 kts 126°
2026-04-30 14:48 59.22041 5.70968 37481 ft 459 kts 126°
2026-04-30 14:49 59.18436 5.81211 37474 ft 459 kts 126°
2026-04-30 14:49 59.14811 5.91462 37469 ft 458 kts 126°
2026-04-30 14:50 59.09377 6.06752 37475 ft 458 kts 126°
2026-04-30 14:51 59.03924 6.21990 37469 ft 458 kts 126°
2026-04-30 14:52 58.98447 6.37205 37448 ft 458 kts 126°
2026-04-30 14:52 58.92968 6.52319 37444 ft 459 kts 126°
2026-04-30 14:53 58.87463 6.67415 37430 ft 459 kts 126°
2026-04-30 14:54 58.80088 6.87484 37407 ft 458 kts 126°
2026-04-30 14:55 58.74540 7.02474 37418 ft 460 kts 126°
2026-04-30 14:56 58.67094 7.22440 37398 ft 461 kts 126°
2026-04-30 14:57 58.61582 7.37111 37377 ft 460 kts 126°
2026-04-30 14:58 58.54062 7.56985 37361 ft 461 kts 126°
2026-04-30 14:58 58.48416 7.71797 37360 ft 462 kts 126°
2026-04-30 15:00 58.38933 7.96470 37355 ft 461 kts 126°
2026-04-30 15:01 58.31300 8.16147 37371 ft 461 kts 126°
2026-04-30 15:01 58.25561 8.30832 37349 ft 462 kts 126°
2026-04-30 15:02 58.21740 8.40561 37346 ft 461 kts 126°
2026-04-30 15:03 58.12125 8.64897 37380 ft 463 kts 126°
2026-04-30 15:04 58.02395 8.89283 37395 ft 469 kts 126°
2026-04-30 15:06 57.92605 9.13584 37395 ft 467 kts 126°
2026-04-30 15:07 57.84387 9.32385 37407 ft 464 kts 129°
2026-04-30 15:08 57.75984 9.50896 37433 ft 467 kts 129°
2026-04-30 15:09 57.65505 9.73820 37432 ft 467 kts 129°
2026-04-30 15:10 57.57047 9.92164 37439 ft 464 kts 130°
2026-04-30 15:11 57.44352 10.19432 37441 ft 464 kts 130°
2026-04-30 15:13 57.33775 10.41910 37435 ft 462 kts 130°
2026-04-30 15:14 57.18950 10.73055 37438 ft 462 kts 130°
2026-04-30 15:17 56.99713 11.12868 37442 ft 463 kts 130°
2026-04-30 15:19 56.82527 11.47875 37435 ft 462 kts 131°